Date String (YYYY-MM-DD hh:mm:ss) UTC,Instrument flags,absolute air pressure of the measurement (hPa),sample flow rate (lpm),inlet stack bypass flow (lpm),air temperature of the measurement (°C),ambient temperature measured by the external sensor (°C),aerosol sample conditioner tube jacket temperature (°C),OPC LED temperature (°C),internal box temperature (°C),relative humidity of the measurement (%),span deviation,mass concentration of particles derived from Lorenz-Mie calculation of OPC scattering (μg/m³),mass concentration of particles derived from Lorenz-Mie calculation of OPC scattering (μg/m³),mass concentration of particles derived from Lorenz-Mie calculation of OPC scattering (μg/m³)
DateTimeUTC,F1_M11,P_M11,Q1_M11,Q2_M11,T1_M11,T2_M11,T3_M11,T4_M11,T5_M11,U1_M11,ZSPAN_M11,X0_M11,X2_M11,X1_M11
2023-10-05 20:00:00,SystemResetWarning,0836.2,5.00,000.00,028.5,025.2,000.0,037.0,030.0,17.1,0000.0,0011.77,0003.70,0002.94
2023-10-05 20:01:00,SystemResetWarning,0836.2,5.00,000.00,028.5,025.5,000.0,037.0,030.0,17.0,0000.0,0010.93,0003.66,0002.94
2023-10-05 20:02:00,SystemResetWarning,0836.2,5.00,000.00,028.4,025.9,000.0,037.0,030.0,17.1,0000.0,0010.92,0003.71,0002.95
2023-10-05 20:03:00,SystemResetWarning,0836.2,5.00,000.00,028.4,026.2,000.0,037.0,030.1,17.1,0000.0,0011.09,0003.73,0002.97
2023-10-05 20:04:00,SystemResetWarning,0836.2,5.00,000.00,028.5,026.5,000.0,037.0,030.1,17.4,0000.0,0011.60,0003.72,0002.96
2023-10-05 20:05:00,SystemResetWarning,0836.2,4.99,000.00,028.5,026.8,000.0,037.0,030.2,17.6,0000.0,0010.10,0003.68,0002.94
2023-10-05 20:06:00,SystemResetWarning,0836.2,4.99,000.00,028.5,027.0,000.0,037.0,030.2,17.7,0000.0,0010.37,0003.68,0002.93
2023-10-05 20:07:00,SystemResetWarning,0836.2,5.00,000.00,028.5,027.1,000.0,037.0,030.3,17.4,0000.0,0010.13,0003.64,0002.90
2023-10-05 20:08:00,SystemResetWarning,0836.1,5.00,000.00,028.6,027.3,000.0,037.0,030.3,17.4,0000.0,0010.72,0003.64,0002.90
2023-10-05 20:09:00,SystemResetWarning,0836.1,5.00,000.00,028.6,027.4,000.0,037.0,030.4,17.4,0000.0,0011.17,0003.65,0002.90
2023-10-05 20:10:00,SystemResetWarning,0836.1,5.00,000.00,028.7,027.3,000.0,037.0,030.4,17.0,0000.0,0010.50,0003.64,0002.90
2023-10-05 20:11:00,SystemResetWarning,0836.1,4.99,000.00,028.6,025.6,000.0,037.0,030.3,17.0,0000.0,0010.25,0003.65,0002.88
2023-10-05 20:12:00,SystemResetWarning,0836.0,5.01,000.00,028.5,024.1,000.0,036.9,029.9,17.1,0000.0,0009.95,0003.60,0002.84
2023-10-05 20:13:00,SystemResetWarning,0836.0,5.01,000.00,028.4,024.0,000.0,036.8,029.8,17.3,0000.0,0009.69,0003.51,0002.79
2023-10-05 20:14:00,SystemResetWarning,0835.9,5.01,000.00,028.3,024.3,000.0,036.8,029.7,17.5,0000.0,0011.25,0003.49,0002.74
2023-10-05 20:15:00,SystemResetWarning,0836.0,5.00,000.00,028.2,024.7,000.0,036.8,029.7,17.5,0000.0,0010.88,0003.45,0002.72
2023-10-05 20:16:00,SystemResetWarning,0835.9,5.00,000.00,028.2,025.2,000.0,036.8,029.7,17.7,0000.0,0011.05,0003.43,0002.71
2023-10-05 20:17:00,SystemResetWarning,0836.0,5.00,000.00,028.2,025.6,000.0,036.8,029.8,17.5,0000.0,0010.90,0003.41,0002.70
2023-10-05 20:18:00,SystemResetWarning,0836.0,4.99,000.00,028.2,026.0,000.0,036.8,029.9,17.5,0000.0,0011.89,0003.45,0002.70
2023-10-05 20:19:00,SystemResetWarning,0835.9,5.00,000.00,028.2,026.3,000.0,036.8,029.9,17.6,0000.0,0011.41,0003.45,0002.72
2023-10-05 20:20:00,SystemResetWarning,0835.9,5.00,000.00,028.3,026.5,000.0,036.8,030.0,17.5,0000.0,0010.75,0003.43,0002.71
2023-10-05 20:21:00,SystemResetWarning,0835.9,5.00,000.00,028.3,026.8,000.0,036.8,030.0,17.5,0000.0,0010.73,0003.41,0002.70
2023-10-05 20:22:00,SystemResetWarning,0835.9,5.00,000.00,028.3,026.9,000.0,036.8,030.1,17.5,0000.0,0010.89,0003.39,0002.72
2023-10-05 20:23:00,SystemResetWarning,0835.9,5.00,000.00,028.4,027.1,000.0,036.8,030.2,17.4,0000.0,0011.56,0003.42,0002.75
2023-10-05 20:24:00,SystemResetWarning,0835.9,5.00,000.00,028.4,027.3,000.0,036.8,030.2,17.3,0000.0,0012.00,0003.44,0002.79
2023-10-05 20:25:00,SystemResetWarning,0835.9,5.00,000.00,028.5,027.4,000.0,036.8,030.3,17.2,0000.0,0010.85,0003.43,0002.80
2023-10-05 20:26:00,SystemResetWarning,0835.9,5.00,000.00,028.5,027.5,000.0,036.9,030.3,17.0,0000.0,0010.35,0003.44,0002.81
2023-10-05 20:27:00,SystemResetWarning,0835.9,5.00,000.00,028.5,027.6,000.0,036.9,030.4,16.9,0000.0,0010.29,0003.45,0002.84
2023-10-05 20:28:00,SystemResetWarning,0835.9,4.99,000.00,028.6,027.6,000.0,036.9,030.4,17.1,0000.0,0010.69,0003.53,0002.89
2023-10-05 20:29:00,SystemResetWarning,0835.9,4.99,000.00,028.6,027.0,000.0,036.9,030.4,17.1,0000.0,0009.79,0003.53,0002.95
2023-10-05 20:30:00,SystemResetWarning,0835.9,5.00,000.00,028.6,025.3,000.0,036.8,030.2,17.1,0000.0,0009.75,0003.55,0002.98
2023-10-05 20:31:00,SystemResetWarning,0835.9,5.01,000.00,028.5,025.0,000.0,036.8,030.1,17.1,0000.0,0009.72,0003.56,0003.02
2023-10-05 20:32:00,SystemResetWarning,0835.9,5.01,000.00,028.4,025.1,000.0,036.8,029.9,17.1,0000.0,0009.65,0003.56,0003.03
2023-10-05 20:33:00,SystemResetWarning,0835.9,5.00,000.00,028.4,025.5,000.0,036.8,029.9,17.1,0000.0,0010.16,0003.59,0003.04
2023-10-05 20:34:00,SystemResetWarning,0835.8,5.00,000.00,028.4,025.8,000.0,036.8,030.0,17.0,0000.0,0009.71,0003.57,0003.04
2023-10-05 20:35:00,SystemResetWarning,0835.8,5.00,000.00,028.4,026.2,000.0,036.8,030.0,17.1,0000.0,0009.61,0003.55,0003.04
2023-10-05 20:36:00,SystemResetWarning,0835.8,5.00,000.00,028.4,026.5,000.0,036.9,030.1,17.2,0000.0,0008.74,0003.53,0003.04
2023-10-05 20:37:00,SystemResetWarning,0835.8,4.99,000.00,028.4,026.7,000.0,036.9,030.1,17.1,0000.0,0008.86,0003.54,0003.02
2023-10-05 20:38:00,SystemResetWarning,0835.8,4.99,000.00,028.5,027.0,000.0,036.9,030.2,17.2,0000.0,0008.83,0003.54,0003.03
2023-10-05 20:39:00,SystemResetWarning,0835.8,5.00,000.00,028.5,027.2,000.0,036.9,030.3,17.2,0000.0,0008.10,0003.49,0003.02
2023-10-05 20:40:00,SystemResetWarning,0835.8,5.00,000.00,028.5,027.3,000.0,036.9,030.3,17.1,0000.0,0008.02,0003.46,0002.99
2023-10-05 20:41:00,SystemResetWarning,0835.7,5.00,000.00,028.6,027.4,000.0,036.9,030.4,17.0,0000.0,0008.57,0003.47,0002.93
2023-10-05 20:42:00,SystemResetWarning,0835.7,5.00,000.00,028.6,027.6,000.0,036.9,030.4,17.1,0000.0,0009.11,0003.47,0002.90
2023-10-05 20:43:00,SystemResetWarning,0835.8,4.99,000.00,028.7,027.5,000.0,037.0,030.5,17.1,0000.0,0009.12,0003.49,0002.90
2023-10-05 20:44:00,SystemResetWarning,0835.7,5.00,000.00,028.6,025.9,000.0,036.9,030.3,16.7,0000.0,0008.60,0003.49,0002.91
2023-10-05 20:45:00,SystemResetWarning,0835.7,5.00,000.00,028.6,025.0,000.0,036.9,030.2,16.9,0000.0,0008.63,0003.49,0002.90
2023-10-05 20:46:00,SystemResetWarning,0835.6,5.00,000.00,028.5,025.1,000.0,036.9,030.1,17.0,0000.0,0008.63,0003.51,0002.90
2023-10-05 20:47:00,SystemResetWarning,0835.6,5.02,000.00,028.4,025.4,000.0,036.9,030.0,17.1,0000.0,0008.61,0003.57,0002.94
2023-10-05 20:48:00,SystemResetWarning,0835.6,5.00,000.00,028.4,025.7,000.0,036.9,030.0,17.1,0000.0,0008.61,0003.60,0002.97
2023-10-05 20:49:00,SystemResetWarning,0835.6,5.00,000.00,028.4,026.1,000.0,036.9,030.1,17.1,0000.0,0009.06,0003.64,0002.99
2023-10-05 20:50:00,SystemResetWarning,0835.7,5.00,000.00,028.4,026.4,000.0,036.9,030.1,17.2,0000.0,0009.74,0003.66,0003.00
2023-10-05 20:51:00,SystemResetWarning,0835.7,5.00,000.00,028.5,026.7,000.0,036.9,030.2,17.1,0000.0,0009.97,0003.68,0003.02
2023-10-05 20:52:00,SystemResetWarning,0835.6,5.00,000.00,028.5,026.9,000.0,036.9,030.2,17.2,0000.0,0009.66,0003.67,0003.08
2023-10-05 20:53:00,SystemResetWarning,0835.6,5.00,000.00,028.5,027.1,000.0,036.9,030.3,17.3,0000.0,0008.93,0003.64,0003.10
2023-10-05 20:54:00,SystemResetWarning,0835.6,5.00,000.00,028.6,027.3,000.0,037.0,030.3,17.2,0000.0,0008.96,0003.65,0003.11
2023-10-05 20:55:00,SystemResetWarning,0835.7,5.00,000.00,028.6,027.5,000.0,037.0,030.4,17.2,0000.0,0009.89,0003.67,0003.11
2023-10-05 20:56:00,SystemResetWarning,0835.6,5.00,000.00,028.7,027.6,000.0,037.0,030.5,17.2,0000.0,0010.11,0003.68,0003.12
2023-10-05 20:57:00,SystemResetWarning,0835.7,4.99,000.00,028.7,026.5,000.0,037.0,030.4,17.0,0000.0,0010.25,0003.73,0003.14
2023-10-05 20:58:00,SystemResetWarning,0835.7,5.01,000.00,028.6,024.5,000.0,036.9,030.1,17.1,0000.0,0010.64,0003.72,0003.13
2023-10-05 20:59:00,SystemResetWarning,0835.6,5.01,000.00,028.5,023.9,000.0,036.8,030.0,17.2,0000.0,0011.49,0003.70,0003.12
